Location: Lombard
(41.8800°N, 88.0080°W)
Time: 08:00:56
(UTC-06:00)

A-11 Canister half - All Passes

Search period start: 28 November 2023 00:00
Search period end: 08 December 2023 00:00
Orbit: 1514 x 1685 km, 47.2° (Epoch: 27 November)

Date Brightness Start Highest point End Pass type
(mag) Time Alt. Az. Time Alt. Az. Time Alt. Az.
28 Nov - 00:22:38 10° SSW 00:31:08 37° SE 00:39:55 10° ENE visible
28 Nov - 02:25:36 10° WSW 02:35:24 89° SSE 02:45:34 10° ENE visible
28 Nov - 04:31:15 10° W 04:41:09 65° N 04:51:17 10° E visible
28 Nov - 06:36:54 10° WNW 06:47:04 83° NNE 06:57:19 10° ESE daylight
28 Nov - 08:42:16 10° WNW 08:51:46 47° SW 09:01:13 10° SSE daylight
28 Nov - 10:52:12 10° WSW 10:54:51 11° WSW 10:57:29 10° SW daylight
28 Nov - 23:59:55 10° SSW 00:08:15 35° SE 00:16:49 10° ENE visible
29 Nov - 02:02:39 10° WSW 02:12:24 87° SSE 02:22:32 10° ENE visible
29 Nov - 04:08:13 10° W 04:18:05 65° N 04:28:13 10° ENE visible
29 Nov - 06:13:54 10° WNW 06:24:02 80° NNE 06:34:17 10° ESE visible
29 Nov - 08:19:14 10° WNW 08:28:49 49° SW 08:38:23 10° SSE daylight
29 Nov - 10:28:11 10° W 10:32:00 13° WSW 10:35:48 10° SW daylight
29 Nov - 23:37:15 10° S 23:45:21 32° SE 23:53:42 10° ENE night (unlit)
30 Nov - 01:39:42 10° WSW 01:49:25 84° SSE 01:59:31 10° ENE visible
30 Nov - 03:45:11 10° W 03:55:02 66° N 04:05:09 10° ENE visible
30 Nov - 05:50:54 10° WNW 06:01:01 78° NNE 06:11:15 10° ESE visible
30 Nov - 07:56:12 10° WNW 08:05:53 52° SW 08:15:33 10° SSE daylight
30 Nov - 10:04:29 10° W 10:09:08 14° WSW 10:13:47 10° SSW daylight
30 Nov - 23:14:35 10° S 23:22:28 30° SE 23:30:34 10° ENE night (unlit)
01 Dec - 01:16:46 10° SW 01:26:26 81° SSE 01:36:29 10° ENE visible
01 Dec - 03:22:09 10° W 03:31:58 66° N 03:42:05 10° ENE visible
01 Dec - 05:27:53 10° WNW 05:37:58 77° NNE 05:48:12 10° ESE visible
01 Dec - 07:33:10 10° WNW 07:42:55 55° SW 07:52:41 10° SE daylight
01 Dec - 09:40:57 10° W 09:46:16 16° WSW 09:51:36 10° SSW daylight
01 Dec - 22:51:58 10° S 22:59:36 28° SE 23:07:26 10° ENE night (unlit)
02 Dec - 00:53:51 10° SW 01:03:27 78° SSE 01:13:27 10° ENE visible
02 Dec - 02:59:08 10° W 03:08:55 67° N 03:19:02 10° ENE visible
02 Dec - 05:04:54 10° WNW 05:14:56 75° NNE 05:25:09 10° ESE visible
02 Dec - 07:10:09 10° WNW 07:19:58 58° SW 07:29:49 10° SE daylight
02 Dec - 09:17:32 10° W 09:23:24 17° WSW 09:29:17 10° SSW daylight
02 Dec - 22:29:22 10° S 22:36:43 26° SE 22:44:16 10° ENE night (unlit)
03 Dec - 00:30:57 10° SW 00:40:30 75° SSE 00:50:26 10° ENE visible
03 Dec - 02:36:07 10° W 02:45:52 67° N 02:55:58 10° ENE visible
03 Dec - 04:41:53 10° WNW 04:51:53 73° NNE 05:02:06 10° E visible
03 Dec - 06:47:08 10° WNW 06:57:00 61° SW 07:06:55 10° SE daylight
03 Dec - 08:54:10 10° W 09:00:32 19° SW 09:06:54 10° SSW daylight
03 Dec - 22:06:48 10° S 22:13:52 24° SE 22:21:04 10° E night (unlit)
04 Dec - 00:08:02 10° SW 00:17:31 72° SSE 00:27:25 10° ENE visible
04 Dec - 02:13:06 10° W 02:22:50 68° N 02:32:55 10° ENE visible
04 Dec - 04:18:53 10° WNW 04:28:51 72° NNE 04:39:02 10° E visible
04 Dec - 06:24:08 10° WNW 06:34:02 64° SW 06:44:01 10° SE visible
04 Dec - 08:30:53 10° W 08:37:39 21° SW 08:44:27 10° SSW daylight
04 Dec - 21:44:17 10° S 21:51:00 22° SE 21:57:52 10° E night (unlit)
04 Dec - 23:45:09 10° SW 23:54:34 69° SE 00:04:23 10° ENE visible
05 Dec - 01:50:05 10° W 01:59:48 69° NNW 02:09:51 10° ENE visible
05 Dec - 03:55:53 10° WNW 04:05:48 71° NNE 04:15:59 10° E visible
05 Dec - 06:01:09 10° WNW 06:11:03 67° SW 06:21:06 10° SE visible
05 Dec - 08:07:38 10° W 08:14:46 22° SW 08:21:56 10° S daylight
05 Dec - 21:21:49 10° SSE 21:28:09 20° SE 21:34:37 10° E night (unlit)
05 Dec - 23:22:17 10° SW 23:31:38 65° SE 23:41:21 10° ENE night (unlit)
06 Dec - 01:27:05 10° W 01:36:45 70° NNW 01:46:48 10° ENE visible
06 Dec - 03:32:53 10° WNW 03:42:45 69° NNE 03:52:54 10° E visible
06 Dec - 05:38:08 10° WNW 05:48:05 70° SW 05:58:10 10° SE visible
06 Dec - 07:44:26 10° W 07:51:52 24° SW 07:59:23 10° S daylight
06 Dec - 20:59:23 10° SSE 21:05:18 19° SE 21:11:19 10° E night (unlit)
06 Dec - 22:59:25 10° SW 23:08:41 62° SE 23:18:20 10° ENE night (unlit)
07 Dec - 01:04:04 10° W 01:13:43 72° NNW 01:23:45 10° ENE visible
07 Dec - 03:09:53 10° WNW 03:19:42 68° N 03:29:50 10° E visible
07 Dec - 05:15:09 10° WNW 05:25:06 73° SSW 05:35:13 10° SE visible
07 Dec - 07:21:15 10° WNW 07:29:00 26° SW 07:36:46 10° S daylight
07 Dec - 20:37:01 10° SSE 20:42:27 17° SE 20:47:58 10° E night (unlit)
07 Dec - 22:36:34 10° SW 22:45:45 59° SE 22:55:18 10° ENE night (unlit)
